This is the latest recevied weather packets stored in our database for station/object WO5CID. If no packets are shown the sender has not sent any weather packets the latest 10 day(s).
| Time | Temp. | Humidity | Pressure | Rain* | Wind** | Luminosity | Snow |
|---|---|---|---|---|---|---|---|
| 1777919494 | 28.33° C | 34% | 1016.5 hPa | 0 mm | - | 637 W/m² | - |
| 1777919192 | 28.33° C | 36% | 1016.7 hPa | 0 mm | - | 1045 W/m² | - |
| 1777918889 | 28.89° C | 34% | 1016.4 hPa | 0 mm | - | 946 W/m² | - |
| 1777918586 | 28.89° C | 33% | 1016.6 hPa | 0 mm | - | 953 W/m² | - |
| 1777918284 | 29.44° C | 35% | 1016.7 hPa | 0 mm | - | 948 W/m² | - |
| 1777917983 | 28.89° C | 35% | 1016.7 hPa | 0 mm | - | 945 W/m² | - |
| 1777917681 | 28.89° C | 33% | 1016.8 hPa | 0 mm | - | 955 W/m² | - |
| 1777917378 | 28.89° C | 33% | 1016.8 hPa | 0 mm | - | 1012 W/m² | - |
| 1777917075 | 28.89° C | 34% | 1016.5 hPa | 0 mm | - | 942 W/m² | - |
| 1777916773 | 28.33° C | 34% | 1016.9 hPa | 0 mm | - | 998 W/m² | - |
| 1777916469 | 28.33° C | 33% | 1016.6 hPa | 0 mm | - | 1008 W/m² | - |
| 1777916166 | 28.33° C | 33% | 1016.9 hPa | 0 mm | - | 967 W/m² | - |
| 1777915864 | 28.89° C | 34% | 1016.9 hPa | 0 mm | - | 971 W/m² | - |
| 1777915560 | 28.89° C | 36% | 1017.1 hPa | 0 mm | - | 943 W/m² | - |
| 1777915256 | 27.78° C | 35% | 1017.1 hPa | 0 mm | - | 941 W/m² | - |
| 1777914953 | 28.89° C | 31% | 1017.1 hPa | 0 mm | - | 959 W/m² | - |
| 1777914650 | 27.78° C | 34% | 1017.2 hPa | 0 mm | - | 966 W/m² | - |
| 1777914346 | 27.78° C | 34% | 1017.5 hPa | 0 mm | - | 969 W/m² | - |
| 1777914044 | 27.78° C | 35% | 1017.4 hPa | 0 mm | - | 1012 W/m² | - |
| 1777913739 | 28.33° C | 35% | 1017.6 hPa | 0 mm | - | 1081 W/m² | - |
| 1777913436 | 28.33° C | 36% | 1017.6 hPa | 0 mm | - | 991 W/m² | - |
| 1777913133 | 27.78° C | 38% | 1017.6 hPa | 0 mm | - | 980 W/m² | - |
| 1777912829 | 27.78° C | 34% | 1017.6 hPa | 0 mm | - | 989 W/m² | - |
| 1777912526 | 28.33° C | 36% | 1017.8 hPa | 0 mm | - | 964 W/m² | - |
| 1777912222 | 27.78° C | 36% | 1017.7 hPa | 0 mm | - | 932 W/m² | - |
* Rain latest hour (hover to see other rain measurements)
** Current wind speed in m/s (hover to see current wind gust speed)